www.pogodaiklimat.ru

Погода и климат >> Архив погоды >> Индонезия >> Коконао


ПОГОДА в Коконао

  • Прогноз погоды в Коконао
  • Монитор погоды в Коконао

АРХИВ ПОГОДЫ в Коконао

Время (UTC), дата Ветер
(напр.,м/с)
 
Видим.   Явления Облачность Т
(С)
Тd
(С)
f
(%)
Тe
(С)
Тes
(С)
Комфортность P
(гПа)
Po
(гПа)
Тmin
(С)
Tmax
(С)
R
(мм)
R24
(мм)
S
(см)
00 9.06 штиль 0 2500 м дождь 10/9 300 м
[Cb cap As trans]
+25.0 +24.5 97 +35 +35 очень
душно
1012.4 1007.6 +24.3 6
03 9.06 В 2 2000 м слаб. дождь 10/9 300 м
[Sc As trans]
+25.7 +24.7 94 +36 +37 очень
душно
1011.4 1006.6 2
06 9.06 штиль 0 8000 м в посл. час дождь 9/5 400 м
[Cu med, cong Ac trans Ci sp]
+28.2 +24.7 81 +40 +43 очень
душно
1009.5 1004.7 0.9
09 9.06 СЗ 1 7000 м 9/6 400 м
[Cu med, cong Ac trans Ci sp]
+26.1 +24.7 92 +37 +37 очень
душно
1010.4 1005.6
12 9.06 штиль 0 7000 м 8/4 450 м
[Sc Ac trans Ci sp]
+25.3 +24.9 98 +36 +36 очень
душно
1012.2 1007.4 +28.4
15 9.06 штиль 0 7000 м 9/5 400 м
[Sc Ac trans Ci sp]
+25.0 +25.0 100 +36 +36 очень
душно
1011.8 1007.0
18 9.06 штиль 0 7000 м {дождь} 5/4 450 м
[Sc Ac trans Ci sp]
+24.3 +24.2 99 +33 +33 очень
душно
1009.9 1005.1 0.0
21 9.06 штиль 0 5000 м дымка 9/5 400 м
[Sc Ac trans Ci sp]
+24.0 +24.0 100 +33 +33 очень
душно
1010.8 1006.1
00 10.06 штиль 0 8000 м 9/6 400 м
[Cu Sc Ac trans Ci sp]
+27.4 +24.8 86 +39 +42 очень
душно
1012.2 1007.4 +23.8 2
03 10.06 штиль 0 9000 м 9/6 400 м
[Cu hum Ac trans Ci sp]
+29.8 +24.2 72 +42 +47 опасность
перегрева
1010.4 1005.6
06 10.06 ЮВ 4 7000 м 9/6 420 м
[Cu med, cong Ac trans Ci sp]
+28.4 +24.6 80 +40 +42 очень
душно
1008.3 1003.6
09 10.06 штиль 0 4000 м слаб. дождь 10/8 400 м
[Sc Ac trans]
+27.0 +25.1 89 +39 +39 очень
душно
1009.7 1004.9 0.3
12 10.06 штиль 0 5000 м слаб. дождь 10/8 400 м
[Sc Ac trans]
+25.4 +24.6 95 +36 +36 очень
душно
1011.1 1006.3 +31.0 1
15 10.06 штиль 0 4000 м слаб. дождь 10/6 360 м
[Sc As op]
+25.0 +24.7 98 +35 +35 очень
душно
1011.8 1007.0 3
18 10.06 штиль 0 6000 м {дождь} 9/5 420 м
[Sc As op]
+24.6 +24.4 99 +34 +34 очень
душно
1010.1 1005.3 2
21 10.06 штиль 0 10 км 10/8 450 м
[Sc Ac As]
+24.2 +23.9 98 +33 +33 очень
душно
1012.0 1007.2
00 11.06 штиль 0 9000 м 9/6 480 м
[Sc Ac trans Ci sp]
+27.4 +25.2 88 +40 +43 очень
душно
1013.1 1008.3 +24.0 6
03 11.06 штиль 0 9000 м 6/6 480 м
[Cu hum Ac trans Ci fib]
+30.5 +24.7 71 +43 +52 опасность
перегрева
1011.2 1006.4
06 11.06 Ю 4 9000 м 8/6 420 м
[Cu med, cong Ac trans Ci sp]
+30.9 +26.3 77 +47 +49 опасность
перегрева
1008.8 1004.0
09 11.06 ЮЗ 2 7000 м гроза, ливневой дождь 9/8
[Cb cap Ac trans Ci sp]
+27.5 +24.8 85 +39 +39 очень
душно
1010.8 1006.0 0.0
12 11.06 В 1 5000 м мгла {гроза, дождь} 10/8 300 м
[Sc Ac trans]
+25.7 +24.3 92 +36 +36 очень
душно
1013.3 1008.5 +32.7 0.0
15 11.06 штиль 0 2000 м дождь 10/10 240 м
[Cb cap]
+24.5 +23.8 96 +33 +33 очень
душно
1013.7 1008.9 3
18 11.06 штиль 0 5000 м мгла {дождь} 10/6 400 м
[Sc Ac trans]
+24.4 +23.7 96 +33 +33 очень
душно
1012.8 1008.0 12
21 11.06 штиль 0 8000 м {дождь} 9/5 420 м
[Sc Ac trans Ci sp]
+24.3 +23.6 96 +33 +33 очень
душно
1012.7 1007.9 1
00 12.06 В 2 9000 м {дождь} 6/5 300 м
[Cu Sc Ac trans Ci sp]
+27.2 +24.8 87 +39 +43 очень
душно
1014.8 1010.0 +24.0 11
03 12.06 ЮВ 3 10 км 6/5 360 м
[Cu hum Ac trans Ci sp]
+30.8 +24.3 68 +43 +50 опасность
перегрева
1012.6 1007.8
06 12.06 ЮВ 3 8000 м 9/6 360 м
[Cu hum Ac trans Ci sp]
+28.4 +25.0 82 +41 +43 опасность
перегрева
1010.5 1005.7
09 12.06 штиль 0 6000 м 9/6
[Cb cap Ac trans Ci sp]
+27.6 +24.6 84 +39 +39 очень
душно
1011.9 1007.1
12 12.06 ЮВ 2 5000 м 9/6 400 м
[Sc Ac trans Ci sp]
+26.1 +24.6 91 +37 +37 очень
душно
1013.5 1008.7 +31.0
15 12.06 штиль 0 5000 м 10/6 400 м
[Sc Ac trans]
+24.8 +24.8 100 +35 +35 очень
душно
1013.9 1009.0
18 12.06 штиль 0 5000 м 10/6 400 м
[Sc Ac trans]
+24.6 +24.3 98 +34 +34 очень
душно
1012.5 1007.6
21 12.06 В 2 8000 м 10/5 400 м
[Sc Ac trans]
+24.7 +24.5 99 +35 +35 очень
душно
1012.5 1007.8
00 13.06 штиль 0 10 км 9/4 450 м
[Cu hum Ac trans Ci sp]
+27.4 +24.4 84 +39 +43 очень
душно
1013.3 1008.5 +24.3
03 13.06 ЮВ 2 10 км 9/6 450 м
[Cu hum Ac trans Ci sp]
+28.4 +24.9 81 +41 +45 опасность
перегрева
1011.2 1006.4
06 13.06 Ю 2 8000 м в посл. час дождь 10/8 400 м
[Cu med, cong Ac trans]
+28.4 +25.3 83 +41 +42 опасность
перегрева
1008.8 1004.0 0.2
09 13.06 В 2 7000 м 9/6 420 м
[Cu med, cong Ac trans Ci sp]
+27.2 +25.0 88 +39 +39 очень
душно
1010.2 1005.5
12 13.06 штиль 0 5000 м в посл. час морось 10/8 400 м
[Sc As trans]
+25.4 +24.3 94 +35 +35 очень
душно
1012.5 1007.7 +28.4 0.0
15 13.06 штиль 0 5000 м 10/8 420 м
[Sc As op]
+24.8 +24.4 98 +35 +35 очень
душно
1012.1 1007.3 5
18 13.06 штиль 0 5000 м в посл. час морось {дождь} 10/8 480 м
[Sc As op]
+24.4 +23.6 95 +33 +33 очень
душно
1011.0 1006.2 0.0
21 13.06 штиль 0 4000 м в посл. час морось {дождь} 10/8 360 м
[Sc As op]
+24.3 +23.6 96 +33 +33 очень
душно
1011.9 1007.1 3
00 14.06 штиль 0 7000 м мгла {дождь} 9/5 400 м
[Cu hum Ac trans Ci sp]
+26.6 +24.4 88 +37 +41 очень
душно
1013.1 1008.3 +24.0 1
03 14.06 ЮВ 2 8000 м 9/8 360 м
[Cu med, cong Ac trans Ci sp]
+28.3 +24.4 79 +40 +42 очень
душно
1011.3 1006.5
06 14.06 Ю 3 7000 м мгла 10/9 420 м
[Sc Ac trans]
+26.9 +24.3 86 +38 +38 очень
душно
1009.1 1004.3
09 14.06 ЮВ 2 2000 м дождь 10/10
[Cb cap]
+24.7 +24.2 97 +34 +34 очень
душно
1010.4 1005.6 9
12 14.06 штиль 0 4000 м слаб. дождь 10/8 330 м
[St As op]
+24.4 +24.1 98 +34 +34 очень
душно
1012.7 1007.9 +28.9 27
15 14.06 З 2 3000 м сильн. дождь 10/8 300 м
[St As op]
+23.4 +23.1 98 +33 +33 очень
душно
1012.5 1007.7 18
18 14.06 штиль 0 3000 м дождь 10/8 270 м
[St As op]
+23.0 +22.9 99 +32 +32 очень
душно
1011.0 1006.3 23
21 14.06 штиль 0 3000 м слаб. дождь 10/8 300 м
[St As op]
+23.2 +23.1 99 +32 +32 очень
душно
1012.4 1007.6 8
00 15.06 штиль 0 8000 м {дождь} 9/3 450 м
[Cu hum Ac trans Ci sp]
+26.4 +24.0 87 +37 +41 очень
душно
1013.2 1008.3 +23.0 1
03 15.06 В 3 8000 м 8/5 450 м
[Cu hum Ac trans Ci sp]
+29.3 +24.9 77 +42 +47 опасность
перегрева
1011.5 1006.6
06 15.06 ЮВ 2 9000 м 8/6 420 м
[Cu med, cong Ac trans Ci sp]
+30.7 +24.6 70 +43 +46 опасность
перегрева
1008.9 1004.1
09 15.06 Ю 4 5000 м гроза, ливневой дождь 10/9
[Cb cap Ac trans]
+26.2 +24.3 89 +36 +36 очень
душно
1010.5 1005.7 0.0
12 15.06 Ю 2 4000 м слаб. ливневой дождь, в посл. час гроза 10/6
[Cb cap As op]
+25.1 +24.7 98 +35 +35 очень
душно
1012.9 1008.1 +31.0 7
15 15.06 Ю 2 4000 м дождь 10/6 420 м
[St As op]
+25.1 +24.7 98 +35 +35 очень
душно
1012.9 1008.1 6
18 15.06 З 2 4000 м слаб. дождь 10/6 240 м
[St As op]
+23.5 +23.4 99 +32 +32 очень
душно
1012.2 1007.4 9
21 15.06 штиль 0 4000 м слаб. дождь 10/10 300 м
[Sc]
+23.5 +23.5 100 +32 +32 очень
душно
1013.2 1008.4 19

 

Местоположение метеостанции Коконао (Индонезия): широта -5.00 долгота 137.45 высота над уровнем моря 3 м.

В архиве по умолчанию представлена погода в Коконао за последнюю неделю. Архивные данные за месяц целиком и за предыдущие месяцы, начиная с января 2011 года, Вы можете получить, выбрав интересующий диапазон дат из раскрывающегося списка и нажав кнопку "Ввод!".


*Определитесь, кто Вы:
робот инопланетянин человек

Внимание! Время в таблицах - всемирное. Для получения местного времени необходимо прибавить поправку, которая равна 9 ч.

Смотрите также архив погоды в соседних городах и на ближайших метеорологических станциях:

Погода в Энаротали (Индонезия) (170 км)
Погода в Вамене (Индонезия) (196 км)
Погода в Набире (Индонезия) (285 км)
Погода в Танах Мерах (Индонезия) (338 км)
Погода в Серуи (Индонезия) (374 км)
Погода в Сарми (Индонезия) (379 км)
Погода в Сентани (Индонезия) (434 км)
Погода в Каимана (Индонезия) (436 км)
Погода в Биаке (Индонезия) (450 км)
Погода в Джаяпуре (Индонезия) (450 км)

Пояснения к столбцам:

Ветер - указаны скорость ветра в м/с - средняя за 10 мин, порывы в срок и между сроками (в фигурных скобках) и направление, откуда дует ветер: С - северный, СВ - северо-восточный, В - восточный, ЮВ - юго-восточный, Ю - южный, ЮЗ - юго-западный, З - западный, СЗ - северо-западный.
Видимость - горизонтальная дальность видимости в метрах или километрах. При видимости от 1 до 10 км при отсутствии осадков обычно наблюдается дымка, при ухудшении видимости до 1 км и менее - туман. В сухую погоду видимость может ухудшаться дымом, пылью или мглою.
Явления - указаны атмосферные явления, наблюдавшиеся в срок или в последний час перед сроком; фигурными скобками обозначены явления, наблюдавшиеся между сроками (за 1-3 часа до срока); квадратными скобками обозначены град или гололедные отложения с указанием их диаметра в мм.
Облачность - указаны через наклонную черту общая и нижняя облачность в баллах и высота нижней границы облаков в метрах; квадратными скобками обозначены формы облаков: Ci - перистые, Cs - перисто-слоистые, Cc - перисто-кучевые, Ac - высококучевые, As - высокослоистые, Sc - слоисто-кучевые, Ns - слоисто-дождевые, Cu - кучевые, Cb - кучево-дождевые. Подробнее классификацию облаков см. в Атласе облаков (PDF).
T - Температура воздуха - температура, измеренная на высоте 2 м над землей.
Td - Температура точки росы - температура, при понижении до которой содержащийся в воздухе водяной пар достигнет насыщения.
f - Относительная влажность воздуха - влажноcть воздуха, измеренная на высоте 2 м над землей.
Te - Эффективная температура - температура, которую ощущает одетый по сезону человек в тени. Характеристика душности погоды. При расчете учитывается влияние влажности воздуха и скорости ветра на теплоощущения человека.
Tes - Эффективная температура на солнце - температура, которую ощущает человек, с поправкой на солнечный нагрев. Характеристика знойности погоды. Зависит от высоты солнца над горизонтом, облачности и скорости ветра. Ночью, в пасмурную погоду, а также при ветре 12 м/с и более поправка равна нулю.
P - Атмосферное давление - приведенное к уровню моря атмосферное давление.
Po - Атмосферное давление - измеренное на уровне метеостанции атмосферное давление.
Tmin - Минимальная температура - минимум температуры воздуха на высоте 2 м над землей.
Tmax - Максимальная температура - максимум температуры воздуха на высоте 2 м над землей.
R - Количество осадков - Количество выпавших осадков за период времени, мм. При наведении курсора мыши на число - период времени, за который выпало указанное количество осадков.
R24 - Количество осадков - Количество выпавших осадков за 24 часа, мм.
S - Снежный покров - Высота снежного покрова, см. При наведении курсора мыши на число - состояние снежного покрова и степень покрытия местности в баллах.